METAR Formatted Surface Weather Observation
Issued by NWS

Home | Current Version | Previous Version | Text Only | Print | Product List | Glossary On
Versions: 1 2 3 4 5 6 7 8 9 10 11 12 13 14 15 16 17 18 19 20 21 22 23 24 25 26 27 28 29 30 31 32 33 34 35 36 37 38 39 40 41 42 43 44 45 46 47 48 49 50
000
SAHW40 PHFO 051157
MTRNGF
METAR PHNG 051157Z 09005KT 7SM FEW021 SCT033 BKN060 24/20 A3002 RMK
AO2 SLP161 60000 70008 T02390200 10244 20233 58018 $


USA.gov is the U.S. government's official web portal to all federal, state and local government web resources and services.